Погода в Кикине

Россия / Пензенская область     53°08′19″N   43°46′16″E
темп.,
°C
ветер,
м/с
пор.,
м/с
влажн.,
%
обл.,
%
осадки,
мм/ч
давл.,
гПа
погр.,
м
26 октября, вт
вт2600:00−2з34765 0.0 103193
03:00−2зюз37785 0.0 1031189
06:00−2юз49785 0.0 1030256
09:000зюз610665 0.0 1029384
12:00+4зюз7105248 0.0 1028638
15:00+4зюз6125789 0.0 1027596
18:00+2юз6136841 0.0 1027334
21:00+2зюз61468100 0.0 1026345
27 октября, ср
ср2700:00+1юз61466100 0.0 1026334
03:00+1юз61466100 0.0 1025331
06:00+1юз61463100 0.0 1024338
09:00+2юз71557100 0.0 1023430
12:00+6юз81446100 0.0 1021668
15:00+7юз81539100 0.0 1019814
18:00+5юз8174119 0.0 1018646
21:00+4юз81652100 0.0 1017623
28 октября, чт
чт2800:00+5зюз71270100 0.0 1016783
03:00+5зюз61191100 0.1 1016618
06:00+5зюз5990100 0.0 1016311
09:00+5юз51084100 0.0 1016360
12:00+8зюз61067100 0.0 1015744
15:00+8юз61077100 0.2 10121098
18:00+7юз61191100 1.0 1011689
21:00+6зюз51095100 2.5 1011526
29 октября, пт
пт2900:00+7сз5996100 2.3 1011581
03:00+5с81392100 2.8 1016888
06:00+3с81487100 0.1 1021716
09:00−1ссв812665 0.1 1026609
12:00+1ссв79500 0.0 1029790
15:00+2ссв67465 0.0 1031780
18:00−1св36600 0.0 1033140
21:00−1всв23595 0.0 103495
30 октября, сб
сб3000:00−1ююв225760 0.0 103538
03:00−2юз345613 0.0 103692
06:00−2зюз365693 0.0 1036140
09:000зюз474818 0.0 1036223
12:00+4зюз57369 0.0 1036422
15:00+4зюз594312 0.0 1035356
18:00+1юз410575 0.0 1035155
21:000юз4105879 0.0 1035169